Terminal Aerodrome Forecast
Issued by NWS Salt Lake City, UT

Home | Current Version | Previous Version | Text Only | Print | Product List | Glossary On
Versions: 1 2 3 4 5 6 7 8 9 10 11 12 13 14 15
000
FTUS45 KSLC 152331
TAFCDC
TAF
KCDC 152331Z 1600/1624 22010KT P6SM BKN200
     FM161700 21012G19KT P6SM SCT100 BKN200
     FM162100 34013KT P6SM VCSH SCT080 BKN110=

USA.gov is the U.S. government's official web portal to all federal, state and local government web resources and services.